Meath Environmental Platform

Observations for Trim Market St

Time AQI Temp °C Hum % Pres Pa CO μg/m³ H₂S μg/m³ NO μg/m³ NO₂ μg/m³ O₃ μg/m³ SO₂ μg/m³ PM1 μg/m³ PM2.5 μg/m³ PM10 μg/m³
Friday 10 July 2026
22:13 1 23 61 57,772 0 3.81 0 12.95 19.55 0 1.43 2.99 4.8
22:12 1 23.1 61 57,783 0.33 5.55 0 9.53 11.49 0 1.43 3.49 4.8
22:11 1 23.1 60 57,792 0 3.75 0 13.65 21.89 0 2.14 3.5 5.48
22:10 1 23.1 60 57,800 0 0.89 0 10.37 4.78 0 1.43 4.01 5.48
22:09 1 23.2 60 57,810 0 2.27 0 12.85 21.62 0 2.14 4.01 5.48
22:08 1 23.2 60 57,816 0 4.94 2.09 15.85 0 0 1.43 3.01 4.11
22:07 1 23.3 60 57,821 0 2.9 0 15.63 19.11 0 1.43 4.52 6.16
22:06 1 23.3 60 57,826 0 0 0 11.33 14.78 0 1.43 4.52 6.16
22:05 1 23.4 60 57,826 0 0 0 7.61 12.56 0 2.14 4.02 5.47
22:04 1 23.4 60 57,828 0 1.1 0 10.81 17.4 0 0.71 2.52 3.42
22:03 1 23.5 60 57,833 0 2.29 0 10.19 13 0 1.43 3.52 5.47
22:02 1 23.5 60 57,838 0 4.43 0 12.29 15.55 0 2.85 4.52 6.16
22:01 1 23.6 60 57,849 0 5.44 0 12.38 18.35 0 2.14 4.03 5.47
21:56 1 23.7 59 57,883 0 4.85 0 14.04 22.03 0 1.43 4.06 5.46
21:54 1 23.8 59 57,895 0 3.42 0 14.45 13.85 0 0.71 3.58 4.76
21:53 1 23.8 59 57,901 0 3.63 0 12.27 7.6 0 1.43 3.08 4.06
21:48 1 24 58 57,917 0 5.32 0 16.31 24.6 0 2.14 4.13 6.13
21:43 1 24.2 57 57,917 0 0 0 12.76 13.4 0 1.43 3.67 4.71
21:42 1 24.2 57 57,915 0 0 0 9.87 16.53 0 1.43 3.67 5.41
21:41 1 24.2 57 57,915 0 0 0 10.69 18.28 0 0.71 3.18 4